Weather observations for the past three days for
Frederick Municipal Airport
Imperial (Metric)
Date Time (edt) Wind (mph) Vis. (mi.) Weather Sky Cond. Temperature (ºF) Relative Humidity Wind Chill (°F) Heat Index (°F) Pressure Precipitation (in)
Air Dwpt 6 hour altimeter (in) sea level (mb) 1 hr 3 hr 6 hr
Max. Min.
20 07:47 Calm 0.00 Fair CLR 73.4 69.8 89% 30.12 0.0
20 06:47 Calm 10.00 Fair CLR 71.6 69.8 94% 30.12 0.0
20 05:55 Calm 10.00 Overcast OVC095 0 0 0% 30.11 0.0
20 05:35 Calm 10.00 Overcast OVC095 71.6 71.6 100% 30.12 0.0
20 05:15 Calm 10.00 Overcast SCT075 OVC095 71.6 71.6 100% 30.12 0.0
20 04:55 Calm 10.00 Overcast SCT075 OVC095 0 0 0% 30.11 0.0
20 04:35 Calm 10.00 Overcast OVC085 0 0 0% 30.11 0.0
20 04:15 Calm 10.00 Overcast SCT075 OVC085 0 0 0% 30.12 0.0
20 03:55 Calm 10.00 Overcast OVC085 0 0 0% 30.12 0.0
20 03:35 Calm 10.00 Overcast SCT075 OVC085 0 0 0% 30.12 0.0
20 03:15 Calm 10.00 Overcast SCT055 OVC085 71.6 71.6 100% 30.12 0.0
20 02:55 Calm 10.00 Overcast SCT043 OVC055 71.6 68 88% 30.12 0.0
20 02:35 Calm 10.00 Overcast SCT043 BKN055 OVC100 71.6 71.6 100% 30.12 0.0
20 02:15 Calm 10.00 Mostly Cloudy BKN055 BKN065 BKN110 71.6 69.8 94% 30.12 0.0
20 01:55 Calm 10.00 Partly Cloudy SCT110 69.8 69.8 100% 30.12 0.0
20 01:35 Calm 10.00 Partly Cloudy SCT110 71.6 71.6 100% 30.12 0.0
20 01:15 Calm 10.00 Partly Cloudy SCT120 71.6 66.2 83% 30.13 0.0
20 00:55 Calm 10.00 Partly Cloudy SCT095 71.6 64.4 78% 30.13 0.0
20 00:35 Calm 10.00 Fair CLR 73.4 64.4 74% 30.13 0.0
20 00:15 Calm 10.00 Fair CLR 73.4 64.4 74% 30.13 0.0
19 23:55 Calm 10.00 Fair CLR 73.4 64.4 74% 30.13 0.0
19 23:35 Calm 10.00 Fair CLR 75.2 64.4 69% 77 30.13 0.0
19 23:15 SE 5 10.00 Fair CLR 77 64.4 65% 79 30.12 0.0
19 22:55 SE 6 10.00 Fair CLR 77 64.4 65% 79 30.12 0.0
19 22:35 SE 6 10.00 Fair CLR 78.8 62.6 58% 80 30.12 0.0
19 22:15 SE 7 10.00 Fair CLR 78.8 62.6 58% 80 30.12 0.0
19 20:47 Calm 10.00 Fair CLR 80.6 62.6 54% 82 30.1 0.0
19 19:47 Calm 10.00 Fair CLR 84.2 60.8 45% 84 30.09 0.0
19 18:47 Calm 10.00 Fair CLR 87.8 59 38% 87 30.07 0.0
19 17:47 Calm 10.00 Partly Cloudy SCT070 87.8 59 38% 87 30.08 0.0
19 16:47 Calm 10.00 Partly Cloudy SCT060 87.8 55.4 33% 86 30.09 0.0
19 15:47 Calm 10.00 Partly Cloudy SCT065 86 57.2 38% 85 30.11 0.0
19 14:47 Calm 10.00 Mostly Cloudy BKN050 87.8 59 38% 87 30.13 0.0
19 13:47 Calm 10.00 Mostly Cloudy BKN050 84.2 57.2 40% 83 30.14 0.0
19 12:47 S 5 10.00 Partly Cloudy SCT050 84.2 57.2 40% 83 30.15 0.0
19 11:47 Calm 10.00 Fair CLR 82.4 57.2 42% 82 30.16 0.0
19 10:47 Calm 10.00 Fair CLR 78.8 57.2 48% 80 30.17 0.0
19 09:47 NE 9 10.00 Fair CLR 75.2 57.2 54% 78 30.16 0.0
19 08:47 NE 9 10.00 Fair CLR 73.4 59 61% 30.16 0.0
19 07:47 NE 8 10.00 Partly Cloudy SCT070 69.8 60.8 73% 30.15 0.0
19 06:47 Calm 10.00 Fair CLR 68 60.8 78% 30.13 0.0
19 05:55 N 6 10.00 Partly Cloudy SCT090 66.2 59 78% 30.09 0.0
19 05:35 NE 3 10.00 Mostly Cloudy BKN100 68 59 73% 30.09 0.0
19 05:15 NE 6 10.00 Overcast SCT080 OVC100 68 59 73% 30.08 0.0
19 04:55 NE 7 10.00 Overcast OVC080 69.8 59 69% 30.07 0.0
19 04:35 NE 6 10.00 Overcast BKN080 OVC090 69.8 59 69% 30.07 0.0
19 04:15 N 8 10.00 Mostly Cloudy BKN080 BKN090 69.8 59 69% 30.07 0.0
19 03:55 NE 9 10.00 Partly Cloudy SCT080 SCT090 69.8 60.8 73% 30.06 0.0
19 03:35 NE 6 10.00 Partly Cloudy SCT080 SCT095 68 60.8 78% 30.06 0.0
19 03:15 NE 6 10.00 Fair CLR 68 68 100% 30.06 0.0
19 02:55 NE 3 10.00 Fair CLR 0 0 0% 30.05 0.0
19 02:35 N 3 10.00 Fair CLR 0 0 0% 30.05 0.0
19 02:15 N 3 10.00 Fair CLR 0 0 0% 30.05 0.0
19 01:55 Calm 10.00 Fair CLR 0 0 0% 30.05 0.0
19 01:35 N 3 10.00 Fair CLR 71.6 71.6 100% 30.05 0.0
19 01:15 Calm 10.00 Partly Cloudy SCT048 SCT050 SCT085 71.6 71.6 100% 30.05 0.0
19 00:55 Calm 10.00 Overcast BKN048 BKN050 OVC085 75.2 69.8 83% 75 30.04 0.0
19 00:35 Calm 10.00 Overcast BKN050 OVC090 73.4 69.8 89% 30.04 0.0
19 00:15 Calm 10.00 Mostly Cloudy SCT050 BKN095 73.4 68 83% 30.03 0.0
18 23:55 N 3 10.00 Partly Cloudy SCT055 SCT065 SCT095 73.4 68 83% 30.03 0.0
18 23:35 Calm 10.00 Overcast BKN050 OVC070 73.4 69.8 89% 30.03 0.0
18 23:15 NW 3 10.00 Mostly Cloudy SCT050 BKN070 BKN090 73.4 69.8 89% 30.03 0.0
18 22:55 Calm 10.00 Mostly Cloudy SCT060 BKN090 73.4 69.8 89% 30.02 0.0
18 22:35 Calm 10.00 Partly Cloudy SCT080 SCT100 75.2 69.8 83% 75 30.02 0.0
18 22:15 Calm 10.00 Mostly Cloudy BKN080 BKN100 77 68 74% 79 30.02 0.0
18 20:47 Calm 10.00 Fair CLR 80.6 66.2 62% 83 29.98 0.0
18 19:47 Calm 10.00 Partly Cloudy SCT040 86 62.6 46% 87 29.95 0.0
18 18:47 Calm 10.00 Partly Cloudy SCT040 86 62.6 46% 87 29.95 0.0
18 17:47 Calm 10.00 Partly Cloudy SCT040 86 62.6 46% 87 29.95 0.0
18 16:47 Calm 10.00 Partly Cloudy SCT040 86 62.6 46% 87 29.95 0.0
18 15:47 Calm 10.00 Partly Cloudy SCT043 87.8 64.4 46% 89 29.97 0.0
18 14:47 Calm 10.00 Partly Cloudy SCT040 SCT045 84.2 64.4 51% 86 29.98 0.0
18 13:47 Calm 10.00 Mostly Cloudy BKN040 BKN120 68 64.4 88% 29.98 0.0
18 12:47 NE 5 10.00 Fair CLR 82.4 64.4 55% 84 29.98 0.0
18 11:47 W 5 10.00 Partly Cloudy SCT120 82.4 68 62% 85 29.98 0.0
18 10:47 Calm 10.00 Mostly Cloudy BKN120 78.8 68 70% 81 29.98 0.0
18 09:47 Calm 10.00 Mostly Cloudy BKN120 77 71.6 83% 78 29.98 0.0
18 08:47 Calm 10.00 Fair CLR 75.2 75.2 100% 73 29.97 0.0
18 07:47 Calm 10.00 Partly Cloudy SCT100 73.4 71.6 94% 29.95 0.0
18 06:47 Calm 10.00 Fair CLR 71.6 69.8 94% 29.91 0.0
18 05:55 Calm 10.00 Partly Cloudy SCT100 73.4 73.4 100% 29.9 0.0
18 05:35 Calm 10.00 Mostly Cloudy BKN100 73.4 73.4 100% 29.9 0.0
18 05:15 Calm 10.00 Partly Cloudy SCT110 73.4 73.4 100% 29.9 0.0
18 04:55 NW 5 10.00 Partly Cloudy SCT110 73.4 73.4 100% 29.88 0.0
18 04:35 NW 3 10.00 Mostly Cloudy BKN110 73.4 73.4 100% 29.88 0.0
18 04:15 NW 3 10.00 Overcast OVC110 0 0 0% 29.88 0.0
18 03:55 Calm 10.00 Overcast OVC110 0 0 0% 29.88 0.0
18 03:35 Calm 10.00 Mostly Cloudy BKN100 0 0 0% 29.87 0.0
18 03:15 Calm 10.00 Fair CLR 0 0 0% 29.87 0.0
18 02:55 NW 3 10.00 Fair CLR 0 0 0% 29.88 0.0
18 02:35 N 3 10.00 Fair CLR 0 0 0% 29.87 0.0
18 02:15 Calm 10.00 Fair CLR 0 0 0% 29.88 0.0
18 01:55 Calm 10.00 Fair CLR 0 0 0% 29.88 0.0
18 01:35 Calm 10.00 Partly Cloudy SCT120 0 0 0% 29.88 0.0
18 01:15 Calm 10.00 Partly Cloudy SCT120 0 0 0% 29.87 0.0
18 00:55 SE 3 10.00 Partly Cloudy SCT095 SCT110 0 0 0% 29.86 0.0
18 00:35 Calm 10.00 Partly Cloudy SCT095 SCT110 0 0 0% 29.88 0.0
18 00:15 Calm 10.00 Partly Cloudy SCT070 SCT080 0 0 0% 29.88 0.0
17 23:55 Calm 10.00 Mostly Cloudy SCT070 SCT080 BKN090 0 0 0% 29.88 0.0
17 23:35 Calm 10.00 Mostly Cloudy SCT080 BKN090 BKN110 77 77 100% 78 29.88 0.0
17 23:15 Calm 10.00 Overcast SCT055 OVC100 0 0 0% 29.88 0.0
17 22:55 N 3 10.00 Overcast BKN060 OVC100 0 0 0% 29.89 0.0
17 22:35 NE 5 10.00 Partly Cloudy SCT060 SCT090 SCT120 0 0 0% 29.88 0.0
17 22:15 NE 3 10.00 Partly Cloudy SCT080 SCT090 SCT120 0 0 0% 29.88 0.0
17 20:47 Calm 10.00 Fair CLR 75.2 75.2 100% 73 29.83 0.0
17 19:47 S 6 10.00 Fair CLR 80.6 80.6 100% 89 29.83 0.0
17 18:47 S 6 10.00 Overcast BKN090 OVC110 77 77 100% 78 29.83 0.0
17 17:47 SW 9 10.00 Mostly Cloudy SCT070 BKN120 78.8 78.8 100% 83 29.82 0.0
17 16:47 SW 9 10.00 Mostly Cloudy SCT070 BKN120 95 64.4 36% 97 29.78 0.0
17 15:47 SW 9 10.00 Fair CLR 96.8 62.6 32% 98 29.8 0.0
17 14:47 SW 10 10.00 Partly Cloudy SCT055 96.8 66.2 37% 100 29.83 0.0
17 13:47 W 8 10.00 Mostly Cloudy SCT055 BKN110 95 68 41% 100 29.85 0.0
17 12:47 SW 10 G 16 0.00 Fair CLR 95 66.2 39% 98 29.87 0.0
17 11:47 W 9 10.00 Fair CLR 93.2 66.2 41% 96 29.88 0.0
17 10:47 SW 9 10.00 Fair CLR 91.4 69.8 49% 97 29.88 0.0
17 08:47 SW 6 10.00 Fair CLR 86 69.8 59% 91 29.91 0.0
Date Time (edt) Wind (mph) Vis. (mi.) Weather Sky Cond. Air Dwpt Max. Min. Relative Humidity Wind Chill (°F) Heat Index (°F) altimeter (in) sea level (mb) 1 hr 3 hr 6 hr
6 hour
Temperature (ºF) Pressure Precipitation (in)